This is the latest recevied weather packets stored in our database for station/object N0MPM-4. If no packets are shown the sender has not sent any weather packets the latest 10 day(s).
| Time | Temp. | Humidity | Pressure | Rain* | Wind** | Luminosity | Snow |
|---|---|---|---|---|---|---|---|
| 1787587458 | 19.44° C | 75% | 1019.1 hPa | 0.25 mm | - | - | - |
| 1787587397 | 19.44° C | 75% | 1019.1 hPa | 0.25 mm | - | - | - |
| 1787587097 | 19.44° C | 77% | 1018.9 hPa | 0.25 mm | - | - | - |
| 1787586797 | 19.44° C | 77% | 1018.8 hPa | 0.25 mm | - | - | - |
| 1787586738 | 19.44° C | 77% | 1018.8 hPa | 0.25 mm | - | - | - |
| 1787586497 | 19.44° C | 77% | 1018.8 hPa | 0 mm | - | - | - |
| 1787586382 | 19.44° C | 76% | 1018.6 hPa | 0 mm | - | - | - |
| 1787586197 | 18.89° C | 76% | 1018.6 hPa | 0 mm | - | - | - |
| 1787586133 | 18.89° C | 76% | 1018.5 hPa | 0 mm | - | - | - |
| 1787586018 | 18.89° C | 76% | 1018.5 hPa | 0 mm | - | - | - |
| 1787585897 | 18.89° C | 77% | 1018.5 hPa | 0 mm | - | - | - |
| 1787585658 | 18.89° C | 77% | 1018.4 hPa | 0 mm | - | - | - |
| 1787585597 | 18.89° C | 77% | 1018.4 hPa | 0 mm | - | - | - |
| 1787585297 | 18.89° C | 76% | 1018.4 hPa | 0.25 mm | - | - | - |
| 1787584997 | 18.89° C | 73% | 1018.4 hPa | 0.25 mm | - | - | - |
| 1787584938 | 18.89° C | 72% | 1018.4 hPa | 0.25 mm | - | - | - |
| 1787584697 | 18.89° C | 71% | 1018.6 hPa | 0.51 mm | - | - | - |
| 1787584578 | 18.89° C | 72% | 1018.6 hPa | 0.51 mm | - | - | - |
| 1787584397 | 18.89° C | 70% | 1018.7 hPa | 0.51 mm | - | - | - |
| 1787584218 | 18.89° C | 68% | 1018.7 hPa | 0.51 mm | - | - | - |
| 1787584097 | 18.89° C | 66% | 1018.7 hPa | 0.51 mm | - | - | - |
| 1787583859 | 18.89° C | 67% | 1018.7 hPa | 0.51 mm | - | - | - |
| 1787583797 | 18.33° C | 67% | 1018.6 hPa | 0.51 mm | - | - | - |
| 1787583497 | 18.33° C | 62% | 1018.6 hPa | 0.51 mm | - | - | - |
| 1787583197 | 18.33° C | 61% | 1018.6 hPa | 0.51 mm | - | - | - |
* Rain latest hour (hover to see other rain measurements)
** Current wind speed in m/s (hover to see current wind gust speed)